Location: Zeddiani
(39.9908°N, 8.5953°E)
Time: 19:45:49
(UTC+00:00)

Daily predictions for brighter satellites

Satellite Brightness Start Highest point End
(mag) Time Altitude Azimuth Time Altitude Azimuth Time Altitude Azimuth
Cosmos 2278 4.1 19:22:58 10° NNW 19:28:38 70° WSW 19:34:16 10° SSE
ATLAS CENTAUR R/B 3.0 19:26:17 10° WSW 19:29:29 34° NW 19:32:47 10° NNE
Meteor 1-15 Rocket 4.5 19:24:02 10° N 19:29:30 53° ENE 19:35:00 10° SSE
Cosmos 1741 Rocket 4.0 19:24:30 10° S 19:29:43 71° ESE 19:35:01 10° NNE
Terra 3.6 19:29:56 10° ESE 19:32:59 17° ENE 19:36:02 10° NNE
SPOT 5 3.6 19:31:23 10° SE 19:35:14 32° ENE 19:39:11 10° N
BREEZE-M DEB (TANK) 4.1 19:33:30 10° W 19:35:34 30° NNW 19:38:06 10° NE
Cosmos 1869 Rocket 3.6 19:32:41 10° N 19:37:09 73° E 19:41:35 10° SSE
In-Cosmos 22 4.3 19:33:22 10° S 19:38:58 86° W 19:44:26 10° N
Cosmos 1400 Rocket 2.7 19:36:34 10° S 19:40:26 89° ENE 19:44:14 10° N
Cosmos 841 Rocket 3.6 19:35:10 10° NNW 19:40:27 87° WSW 19:45:42 10° SSE
Cosmos 1241 Rocket 4.4 19:36:39 10° SSW 19:42:44 67° ESE 19:48:54 10° NE
CZ-4C R/B 3.4 19:43:23 10° SE 19:45:28 13° ESE 19:47:43 10° ENE
Meteor 1-4 Rocket 3.7 19:44:09 11° SE 19:46:04 18° E 19:48:13 10° NE
RESURS DK-1 2.7 19:42:30 10° NNW 19:46:31 61° WSW 19:50:31 10° SSE
PSLV R/B 3.8 19:43:24 10° S 19:46:54 68° W 19:50:22 10° NNW
USA 186 3.9 19:44:12 10° SSW 19:47:02 26° W 19:49:52 10° NW
CZ-4B R/B 4.1 19:44:33 10° S 19:49:37 46° W 19:54:47 10° NNW
MetOp-B 4.5 19:45:36 10° SE 19:50:45 51° ENE 19:55:56 10° N
Meteor 1-22 Rocket 4.4 19:45:13 10° N 19:51:03 83° E 19:57:04 10° S
Okean-O 2.6 19:47:15 10° SSE 19:51:37 71° ENE 19:56:01 10° N
ATLAS 2AS CENTAUR R/B 2.8 19:45:02 10° NNW 19:51:49 69° NE 19:57:55 12° SE
Cosmos 1908 4.3 19:49:28 10° NNW 19:52:52 41° W 19:56:17 10° SSW
Cosmos 2360 Rocket 2.3 19:48:16 10° NNW 19:53:57 71° ENE 19:59:16 12° SSE
SJ 16-02 1.3 19:50:02 10° S 19:54:16 62° ESE 19:58:33 10° NNE
Cosmos 2266 Rocket 4.1 19:49:50 10° S 19:56:11 86° W 20:02:38 10° N
Meteor 2-10 Rocket 3.6 19:52:59 10° N 19:58:24 72° E 20:03:33 10° SSE
Cosmos 1953 4.3 19:57:10 10° NE 19:59:08 14° ENE 20:00:54 11° E
S3M 4.0 19:53:41 10° N 20:00:03 88° E 20:06:17 10° S
Okean O Rocket 2.6 19:57:07 10° S 20:01:20 46° W 20:05:32 10° NNW
Cosmos 1455 4.2 20:00:48 10° NE 20:02:11 12° ENE 20:03:31 10° E
Cosmos 2228 Rocket 3.1 20:00:47 10° S 20:05:20 80° E 20:09:55 10° N
SL-27 R/B 4.3 20:03:20 10° SW 20:05:43 26° WNW 20:08:07 10° N
Cosmos 1862 Rocket 3.7 20:01:57 10° S 20:06:16 58° E 20:10:37 10° NNE
BREEZE-M DEB (TANK) 4.1 20:03:45 10° W 20:07:03 50° NNW 20:17:13 10° ENE
Okean 1-7 4.0 20:06:18 16° SE 20:08:59 29° E 20:12:44 10° NNE
GENESIS II 4.3 20:06:03 10° SW 20:09:39 72° WNW 20:13:17 10° NNE
Cosmos 1315 Rocket 3.5 20:09:06 16° SSE 20:11:44 34° E 20:15:21 10° NNE
COSMOS 2455 3.6 20:07:41 10° SSE 20:12:52 31° ESE 20:18:04 10° NE
Cosmos 1242 Rocket 3.9 20:13:39 14° E 20:13:39 14° E 20:15:00 10° ENE
SL-16 R/B 3.5 20:08:57 10° NW 20:14:06 37° WSW 20:19:13 10° S
Meteor 1-21 4.3 20:08:52 10° S 20:14:39 79° E 20:20:29 10° NNE
SeaSat 1 3.8 20:13:07 13° ESE 20:16:37 28° NE 20:20:46 10° N
Cosmos 1346 Rocket 2.6 20:13:51 10° N 20:17:42 86° ENE 20:20:37 17° S
DNEPR-1 R/B 4.3 20:14:19 10° NNW 20:20:42 70° NE 20:24:22 20° SE
Ariane Rocket 3.5 20:20:29 19° SE 20:23:51 45° ENE 20:28:40 10° N
IRS-1C Rocket 4.1 20:20:04 15° SSE 20:24:29 86° ENE 20:29:46 10° NNW
Cosmos 1707 Rocket 3.9 20:21:16 10° SSW 20:25:41 69° W 20:30:05 10° N
Okean 3 3.3 20:22:11 11° S 20:26:07 80° E 20:30:19 10° N
IRS-1A Rocket 4.2 20:22:49 15° SSE 20:27:23 87° ENE 20:32:57 10° NNW
SL-14 R/B 4.3 20:23:58 10° SSW 20:27:34 43° W 20:31:13 10° N
Cosmos 839 Rocket 4.1 20:22:18 10° NNW 20:28:56 71° ENE 20:33:11 21° SE
Cosmos 2333 Rocket 2.6 20:25:56 10° NNW 20:31:37 62° WSW 20:36:11 16° S
Cosmos 1655 Rocket 4.4 20:26:06 10° SSW 20:32:26 66° W 20:38:49 10° N
SL-4 R/B 3.5 20:29:14 10° NW 20:32:40 30° NNE 20:35:53 12° E
Cosmos 2237 Rocket 4.2 20:30:43 10° NNE 20:34:06 16° NE 20:37:29 10° E
OPS 8737 4.1 20:31:13 10° NW 20:34:12 85° SW 20:35:32 33° SSE
BlueWalker 3 4.2 20:31:50 10° W 20:35:04 27° NNW 20:38:19 10° NNE
Okean 2 3.4 20:34:09 23° SSE 20:36:24 58° E 20:40:22 10° NNE
Cosmos 2227 Rocket 4.2 20:37:03 11° E 20:37:03 11° E 20:38:04 10° E
Resurs 01 Rocket 4.4 20:42:09 10° WSW 20:43:49 12° W 20:45:30 10° WNW
Cosmos 1733 Rocket 3.6 20:40:21 10° NNW 20:44:41 55° W 20:47:58 17° SSW
Cosmos 2322 4.0 20:42:02 10° NNW 20:47:38 57° ENE 20:50:38 27° SE
Meteor 1-16 Rocket 4.3 20:44:55 10° N 20:50:52 88° W 20:54:41 23° S
USA 234 3.2 20:44:27 10° NE 20:50:58 68° SE 20:57:29 10° SW
Cosmos 2322 Rocket 3.8 20:47:11 10° NW 20:52:00 29° WSW 20:56:47 10° SSW
Cosmos 2297 Rocket 2.9 20:53:48 28° SE 20:55:26 34° ESE 21:00:27 10° NE
Meteor 2-20 Rocket 4.3 20:50:39 10° N 20:56:47 85° E 21:00:17 26° S
MOS 1 Rocket 3.7 20:58:40 25° S 21:01:51 76° WSW 21:07:04 10° NNW
Cosmos 1908 Rocket 3.4 21:01:18 10° N 21:05:39 75° E 21:07:02 42° SSE
ERS-1 Rocket 3.7 21:03:32 20° SSW 21:06:48 47° W 21:11:39 10° NNW
Cosmos 371 Rocket 3.4 21:06:32 38° SSE 21:07:57 51° ESE 21:12:38 10° NNE
Cosmos 2219 Rocket 2.7 21:03:09 10° NNW 21:08:41 55° WSW 21:11:43 26° S
Cosmos 1782 Rocket 4.1 21:05:19 10° N 21:09:25 40° ENE 21:10:15 36° ESE
Terra 2.5 21:07:31 23° SSW 21:10:09 49° W 21:14:44 10° NNW
MetOp-A 4.2 21:10:24 35° SE 21:12:26 60° ENE 21:17:33 10° N
Cosmos 1570 Rocket 4.0 21:09:32 10° NNW 21:14:55 89° E 21:17:02 38° SSE
Cosmos 1300 Rocket 4.2 21:12:25 10° N 21:16:30 39° ENE 21:17:09 37° E
ARIANE 5 R/B 4.0 21:19:54 22° E 21:20:42 24° ENE 21:24:11 10° NNE
Landsat 4 4.4 21:24:23 35° SW 21:24:59 38° W 21:28:13 10° NNW
Spot 1 4.5 21:20:40 10° N 21:25:26 75° WNW 21:28:03 28° SSW
GP-B 3.1 21:22:24 10° N 21:26:46 59° E 21:27:24 52° SE
Cosmos 2084 Rocket 3.4 21:25:43 24° SW 21:28:15 81° NW 21:32:28 10° NNE
Cosmos 836 Rocket 4.5 21:23:22 10° NNW 21:28:36 72° ENE 21:30:08 46° SE
SPOT 3 Rocket 4.3 21:30:22 27° SSW 21:32:47 44° W 21:37:43 10° NNW
CZ-4C R/B 2.3 21:28:37 10° SW 21:32:52 57° NW 21:38:07 10° NNE
NOSS 0 Rocket 4.0 21:26:47 10° NNW 21:33:03 73° ENE 21:35:24 40° SE
SJ 16-02 4.4 21:31:17 10° W 21:33:03 12° WNW 21:34:48 10° NNW
Cosmos 1953 3.3 21:31:35 10° NNW 21:35:06 35° W 21:36:01 31° WSW
COSMOS 2428 2.7 21:29:33 10° NNW 21:35:15 74° WSW 21:37:11 42° S
Cosmos 1455 3.2 21:33:31 10° NNW 21:36:44 34° W 21:37:15 32° WSW
Cosmos 1745 Rocket 4.0 21:34:05 33° S 21:37:11 90° E 21:43:35 10° N
Cosmos 2360 Rocket 4.5 21:34:10 10° WNW 21:37:13 15° W 21:40:15 10° SW
Cosmos 1777 Rocket 4.1 21:36:58 49° SSE 21:37:58 58° ESE 21:43:09 10° NNE
BREEZE-M DEB (TANK) 4.0 21:39:51 32° NNE 21:39:51 32° NNE 21:41:55 10° NE
Cosmos 304 Rocket 3.6 21:38:33 48° SSW 21:39:52 89° ESE 21:44:39 10° NNE
ATLAS 2AS CENTAUR R/B 4.3 21:37:12 10° WNW 21:41:59 21° WSW 21:45:21 14° SW
Nadezhda 1 Rocket 3.9 21:39:56 10° N 21:46:12 82° W 21:48:28 42° S
Cosmos 1503 Rocket 3.9 21:45:02 46° SSW 21:46:41 85° ESE 21:52:00 10° NNE
SL-23 DEB 4.2 21:48:12 26° WSW 21:50:22 79° NW 21:56:24 10° NE
SeaSat 1 3.2 21:52:49 35° SW 21:53:53 39° WSW 21:58:29 10° NW
BREEZE-M R/B 4.0 21:57:09 33° E 21:57:09 33° E 22:02:06 10° ENE
H-2A R/B 3.7 21:56:48 30° ENE 21:56:57 30° ENE 22:00:37 10° N
Cosmos 2208 Rocket 4.5 21:52:23 10° NNW 21:57:21 49° WSW 21:58:30 42° SW
Cosmos 2098 Rocket 4.2 21:51:51 10° N 21:58:07 51° ENE 21:59:29 43° ESE
COSMOS 2455 4.0 21:52:55 10° SW 21:58:35 42° NW 22:04:19 10° NNE
SL-12 R/B(2) 4.3 21:56:37 39° SSE 21:59:19 54° ESE 22:08:08 10° NE
Okean 2 Rocket 4.5 21:55:40 10° NNE 21:59:29 26° ENE 21:59:32 26° ENE
Cosmos 1408 3.9 22:02:06 29° NW 22:02:06 29° NW 22:04:11 10° NNW
Cosmos 332 Rocket 3.7 22:03:50 64° ESE 22:03:55 65° ESE 22:08:46 10° NNE
CZ-2C R/B 3.5 22:00:19 10° NNE 22:04:46 84° WNW 22:05:09 74° SW
ALOS 2 4.2 22:04:51 24° ENE 22:05:10 24° ENE 22:08:41 10° NNE
Cosmos 1174 4.1 22:04:23 10° NNW 22:08:42 61° NE 22:08:42 61° NE
Cosmos 405 Rocket 3.5 22:06:56 10° N 22:09:55 44° NE 22:09:55 44° NE
SL-4 R/B 2.8 22:07:39 10° WNW 22:10:36 42° W 22:10:36 42° W
Meteor 2-5 Rocket 3.7 22:11:12 53° S 22:12:41 89° W 22:18:31 10° N
Cosmos 2181 Rocket 4.3 22:07:03 10° N 22:13:02 52° E 22:14:19 44° ESE
CENTAUR R/B 2.2 22:11:56 56° SSW 22:13:11 78° ESE 22:19:50 10° NE
SL-16 R/B 3.6 22:11:29 10° N 22:16:26 30° ENE 22:18:25 24° E
Spot 4 4.3 22:17:54 48° E 22:18:15 49° ENE 22:22:53 10° N
Cosmos 2237 Rocket 2.0 22:13:13 10° NNW 22:18:53 82° WSW 22:19:45 65° S
Cosmos 2227 Rocket 2.1 22:18:48 58° SSW 22:19:59 89° ESE 22:25:41 10° NNE
Cosmos 783 Rocket 4.4 22:15:44 10° NNW 22:21:04 82° ENE 22:21:39 70° SE
Cosmos 2221 Rocket 4.0 22:25:50 51° ENE 22:25:50 51° ENE 22:29:37 10° NNE
Cosmos 1980 3.8 22:27:36 10° NNW 22:33:10 58° WSW 22:33:48 55° SW
H-2A R/B 4.2 22:31:52 10° NE 22:33:24 16° ENE 22:33:24 16° ENE
Sich 1 Rocket 3.9 22:31:02 10° N 22:34:57 59° NE 22:34:57 59° NE
Cosmos 2297 Rocket 3.6 22:35:31 16° WSW 22:39:23 34° WNW 22:44:30 10° N
Cosmos 1461 4.5 22:43:13 25° NE 22:43:13 25° NE 22:45:03 10° NE
Okean 1 Rocket 3.8 22:37:11 10° N 22:40:58 44° ENE 22:40:58 44° ENE
Cosmos 990 Rocket 3.8 22:45:53 85° SW 22:46:02 88° WNW 22:51:12 10° NNE
Cosmos 967 Rocket 4.4 22:49:00 54° SSW 22:50:38 87° WNW 22:57:09 10° NNE
Nadezhda 3 Rocket 4.5 22:44:47 10° N 22:50:46 47° ENE 22:51:56 42° ESE
USA 281 3.2 22:50:46 57° S 22:52:06 72° WSW 22:58:41 10° NNW
Cosmos 2219 3.0 22:51:46 75° SSW 22:52:17 88° ESE 22:57:55 10° NNE
ARIANE 5 R/B 4.0 22:57:21 28° W 22:57:21 28° W 23:00:44 10° NW
Cosmos 1025 Rocket 3.7 23:00:15 48° NE 23:00:15 48° NE 23:03:37 10° NNE
Cosmos 2184 Rocket 3.9 22:59:57 63° S 23:01:05 89° WNW 23:07:30 10° N
Cosmos 2263 Rocket 2.0 23:01:07 74° ESE 23:01:15 74° ESE 23:06:49 10° NNE
Cosmos 372 Rocket 4.2 23:10:27 56° E 23:10:27 56° E 23:15:13 10° NNE
Cosmos 1455 Rocket 4.0 23:07:28 10° N 23:11:17 39° ENE 23:11:17 39° ENE
Cosmos 292 Rocket 3.8 23:17:32 72° NW 23:17:32 72° NW 23:22:08 10° NNE
Cosmos 1844 Rocket 4.4 23:18:48 19° E 23:18:48 19° E 23:22:16 10° ENE
Cosmos 2154 Rocket 3.9 23:18:32 64° SSW 23:19:33 80° W 23:25:53 10° N
NOSS 3-2 (A) 3.7 23:18:38 41° W 23:20:03 53° NW 23:25:54 10° NNE
Cosmos 1825 4.2 23:23:13 21° NW 23:23:13 21° NW 23:24:59 10° NNW
Cosmos 1900 4.5 23:28:09 68° ENE 23:28:09 68° ENE 23:32:48 10° NE
NOSS 3-2 (C) 2.9 23:30:22 83° SE 23:30:25 83° ESE 23:36:21 10° NE
PSLV R/B 4.1 23:27:19 10° N 23:30:49 52° NW 23:30:49 52° NW
H-2A R/B 4.4 23:32:47 21° WNW 23:32:47 21° WNW 23:35:11 10° NW
Meteor 1-21 Rocket 4.1 23:34:06 71° SW 23:34:37 77° W 23:40:17 10° N
Cosmos 1538 Rocket 4.3 23:30:01 10° NNW 23:34:51 55° W 23:34:51 55° W
Cosmos 1818 3.6 23:30:23 10° NNW 23:35:52 73° ENE 23:36:27 66° ESE
ALOS 2 4.1 23:42:15 27° WNW 23:42:15 27° WNW 23:45:12 10° NW
In-Cosmos 22 Rocket 4.1 23:41:13 74° SSE 23:41:44 82° E 23:47:36 10° N
Aureole 1 Rocket 4.3 23:48:39 31° WNW 23:48:39 31° WNW 23:52:47 10° N
Cosmos 1937 Rocket 3.4 23:48:31 73° W 23:48:43 74° WNW 23:53:58 10° NNE
